TimeEST,TemperatureF,Dew PointF,Humidity,Sea Level PressureIn,VisibilityMPH,Wind Direction,Wind SpeedMPH,Gust SpeedMPH,PrecipitationIn,Events,Conditions,WindDirDegrees,DateUTC
12:53 AM,45.0,26.1,48,30.11,10.0,SSW,6.9,-,N/A,,Overcast,200,2013-12-29 05:53:00
1:53 AM,43.0,33.1,68,30.10,8.0,SSW,5.8,-,0.02,Rain,Light Rain,210,2013-12-29 06:53:00
2:53 AM,41.0,37.0,86,30.08,10.0,South,4.6,-,0.04,Rain,Light Rain,180,2013-12-29 07:53:00
3:53 AM,41.0,37.9,89,30.06,5.0,SSW,3.5,-,0.10,Rain,Rain,200,2013-12-29 08:53:00
4:53 AM,39.9,39.0,97,30.01,4.0,Calm,Calm,-,0.15,Rain,Rain,0,2013-12-29 09:53:00
5:14 AM,39.9,39.0,97,30.00,5.0,Calm,Calm,-,0.02,Rain,Light Rain,0,2013-12-29 10:14:00
5:29 AM,39.9,39.0,97,29.99,2.5,NNE,3.5,-,0.06,Rain,Rain,20,2013-12-29 10:29:00
5:53 AM,39.9,39.0,97,29.97,3.0,NNE,5.8,-,0.14,Rain,Rain,20,2013-12-29 10:53:00
6:04 AM,39.9,39.0,97,29.95,2.5,NNE,6.9,-,0.03,Rain,Rain,30,2013-12-29 11:04:00
6:12 AM,39.9,39.0,97,29.94,4.0,NNE,6.9,-,0.04,Rain,Light Rain,30,2013-12-29 11:12:00
6:20 AM,39.9,39.0,97,29.94,1.8,NNE,5.8,-,0.06,Rain,Rain,30,2013-12-29 11:20:00
6:29 AM,39.9,39.0,97,29.93,2.0,NE,5.8,-,0.08,Rain,Rain,40,2013-12-29 11:29:00
6:39 AM,39.9,39.0,97,29.92,2.5,NE,6.9,-,0.11,Rain,Rain,40,2013-12-29 11:39:00
6:53 AM,39.9,39.0,97,29.92,1.5,North,4.6,-,0.15,Rain,Rain,350,2013-12-29 11:53:00
7:01 AM,39.9,39.0,97,29.92,2.0,North,5.8,-,0.03,Rain,Rain,350,2013-12-29 12:01:00
7:29 AM,39.9,39.0,97,29.92,1.8,NNW,5.8,-,0.14,Rain,Rain,340,2013-12-29 12:29:00
7:36 AM,39.9,39.0,97,29.91,2.0,North,3.5,-,0.17,Rain,Rain,10,2013-12-29 12:36:00
7:53 AM,39.9,39.0,97,29.91,2.5,East,3.5,-,0.24,Rain,Rain,90,2013-12-29 12:53:00
8:13 AM,39.9,39.0,97,29.88,3.0,ENE,5.8,-,0.06,Rain,Rain,70,2013-12-29 13:13:00
8:22 AM,39.9,39.0,97,29.87,3.0,ENE,6.9,-,0.08,Rain,Rain,60,2013-12-29 13:22:00
8:31 AM,39.9,39.0,97,29.86,2.0,ENE,8.1,-,0.11,Rain,Rain,60,2013-12-29 13:31:00
8:39 AM,39.9,39.0,97,29.85,2.0,ENE,5.8,-,0.13,Rain,Rain,60,2013-12-29 13:39:00
8:53 AM,39.9,39.9,100,29.86,2.0,North,3.5,-,0.18,Rain,Rain,360,2013-12-29 13:53:00
9:00 AM,39.9,39.9,100,29.84,1.5,NNE,3.5,-,0.03,Rain,Rain,20,2013-12-29 14:00:00
9:18 AM,39.9,39.0,97,29.81,2.0,NNE,5.8,-,0.08,Rain,Light Rain,30,2013-12-29 14:18:00
9:28 AM,39.9,39.9,100,29.82,1.2,NNW,3.5,-,0.13,Rain,Heavy Rain,330,2013-12-29 14:28:00
9:46 AM,41.0,39.9,96,29.80,1.2,NNE,4.6,-,0.24,Rain,Heavy Rain,20,2013-12-29 14:46:00
9:53 AM,41.0,39.9,96,29.78,1.5,NE,8.1,-,0.27,Rain,Rain,40,2013-12-29 14:53:00
10:09 AM,41.0,39.9,96,29.79,1.0,NNW,3.5,-,0.10,Rain,Heavy Rain,340,2013-12-29 15:09:00
10:32 AM,42.1,42.1,100,29.79,0.8,West,3.5,-,0.26,Rain,Rain,260,2013-12-29 15:32:00
10:38 AM,43.0,42.1,97,29.78,1.5,Calm,Calm,-,0.28,Rain,Rain,0,2013-12-29 15:38:00
10:48 AM,42.8,42.8,100,29.76,2.0,Calm,Calm,-,0.29,Rain,Light Rain,0,2013-12-29 15:48:00
10:49 AM,43.0,42.1,97,29.76,2.0,Calm,Calm,-,0.30,Rain,Light Rain,0,2013-12-29 15:49:00
11:02 AM,43.0,43.0,100,29.75,1.2,West,3.5,-,0.02,Rain,Rain,270,2013-12-29 16:02:00
11:16 AM,44.1,44.1,100,29.73,2.0,Calm,Calm,-,0.03,Rain,Light Rain,0,2013-12-29 16:16:00
11:35 AM,45.0,43.0,93,29.70,1.2,SE,3.5,-,0.04,Rain,Light Rain,130,2013-12-29 16:35:00
11:43 AM,44.1,44.1,100,29.68,1.0,ESE,3.5,-,0.04,,Overcast,120,2013-12-29 16:43:00
11:45 AM,44.1,44.1,100,29.68,0.5,ESE,3.5,-,0.04,Fog,Fog,110,2013-12-29 16:45:00
11:53 AM,44.1,43.0,96,29.67,0.5,SE,3.5,-,0.05,Fog,Fog,130,2013-12-29 16:53:00
12:00 PM,44.1,43.0,96,29.66,0.5,SE,3.5,-,N/A,Fog,Fog,130,2013-12-29 17:00:00
12:05 PM,44.1,44.1,100,29.65,1.0,SSE,3.5,-,N/A,,Mist,150,2013-12-29 17:05:00
12:41 PM,45.0,45.0,100,29.61,1.0,Calm,Calm,-,N/A,,Overcast,0,2013-12-29 17:41:00
12:53 PM,46.0,45.0,96,29.60,1.0,Calm,Calm,-,N/A,,Overcast,0,2013-12-29 17:53:00
1:00 PM,46.0,46.0,100,29.60,2.0,Calm,Calm,-,N/A,,Overcast,0,2013-12-29 18:00:00
1:07 PM,46.9,45.0,93,29.65,1.0,SW,6.9,-,N/A,,Overcast,230,2013-12-29 18:07:00
1:18 PM,46.9,46.0,97,29.65,2.0,Variable,5.8,-,N/A,,Overcast,0,2013-12-29 18:18:00
1:49 PM,48.2,46.4,93,29.61,10.0,SSW,4.6,-,N/A,,Overcast,200,2013-12-29 18:49:00
1:50 PM,48.0,46.0,93,29.61,10.0,SSW,5.8,-,N/A,,Overcast,200,2013-12-29 18:50:00
2:01 PM,48.0,46.0,93,29.61,10.0,Variable,5.8,-,N/A,,Overcast,0,2013-12-29 19:01:00
2:53 PM,50.0,46.0,86,29.59,10.0,Variable,5.8,-,0.00,,Scattered Clouds,0,2013-12-29 19:53:00
3:53 PM,53.1,44.1,71,29.62,10.0,Variable,5.8,-,N/A,,Clear,0,2013-12-29 20:53:00
4:53 PM,52.0,42.1,69,29.65,10.0,WSW,11.5,-,N/A,,Scattered Clouds,250,2013-12-29 21:53:00
5:53 PM,51.1,41.0,68,29.70,10.0,Variable,5.8,-,N/A,,Partly Cloudy,0,2013-12-29 22:53:00
6:53 PM,52.0,35.1,53,29.74,10.0,WNW,11.5,23.0,N/A,,Clear,300,2013-12-29 23:53:00
7:53 PM,50.0,35.1,57,29.79,10.0,NW,4.6,-,N/A,,Partly Cloudy,310,2013-12-30 00:53:00
8:53 PM,50.0,34.0,54,29.81,10.0,Variable,4.6,-,N/A,,Clear,0,2013-12-30 01:53:00
9:53 PM,46.9,35.1,63,29.83,10.0,Variable,4.6,-,N/A,,Clear,0,2013-12-30 02:53:00
10:53 PM,39.9,34.0,79,29.85,10.0,South,6.9,-,N/A,,Clear,180,2013-12-30 03:53:00
11:53 PM,45.0,35.1,68,29.84,10.0,SSW,6.9,-,N/A,,Clear,210,2013-12-30 04:53:00